Location: ČR
(50.0000°N, 15.0000°E)
Time: 15:12:57
(UTC+01:00)

Courier 1B - Pass Details

Date: 13 February 2026
Orbit: 962 x 1208 km, 28.3° (Epoch: 16 March)

Event Time Altitude Azimuth Distance (km) Brightness Sun altitude
Rises 22:31:24 0° 224° (SW) 4,070 - -47.6°
Reaches altitude 10° 22:36:07 10° 199° (SSW) 3,130 - -48.0°
Maximum altitude 22:39:25 13° 174° (S) 2,902 - -48.3°
Drops below altitude 10° 22:42:42 10° 148° (SSE) 3,138 - -48.6°
Sets 22:47:26 0° 124° (ESE) 4,089 - -49.1°
